Thule Sermersua

KL  EN  DA
ASIAQ
Weather Now GREENLAND SURVEY
Updated [WGT/WGST] Temperature [°C] Wind [m/s] Air pressure [hPa] Relative humidity [%] Precipitation [mm]
Present Wind chill Speed Max
24.09 01:00-8,40,011,1 ⇖n/a95487n/a
24.09 00:00-8,60,011,1 ⇖n/a95488n/a
23.09 23:00-9,00,011,0 ⇖n/a95489n/a
23.09 22:00-10,00,010,6 ⇖n/a95486n/a
23.09 21:00-10,80,010,1 ⇖n/a95483n/a
23.09 20:00-10,70,09,3 ⇖n/a95481n/a
23.09 19:00-9,90,09,2 ⇖n/a95480n/a
23.09 18:00-10,00,09,3 ⇖n/a95480n/a
23.09 17:00-10,60,09,2 ⇖n/a95479n/a
23.09 16:00-10,30,09,0 ⇖n/a95477n/a
23.09 15:00-10,40,08,9 ⇖n/a95377n/a
23.09 14:00-10,20,08,8 ⇖n/a95376n/a
23.09 13:00-9,70,08,3 ⇖n/a95376n/a
23.09 12:00-9,90,08,2 ⇖n/a95379n/a
23.09 11:00-10,00,08,5 ⇖n/a95382n/a
23.09 10:00-9,90,08,5 ⇖n/a95383n/a
23.09 09:00-10,10,08,7 ⇖n/a95385n/a
23.09 08:00-10,80,08,6 ⇖n/a95286n/a
23.09 07:00-12,00,08,3 ⇖n/a95284n/a
23.09 06:00-12,50,08,4 ⇖n/a95284n/a
23.09 05:00-13,30,07,9 ⇖n/a95283n/a
23.09 04:00-12,70,07,3 ⇖n/a95185n/a
23.09 03:00-13,10,07,8 ⇖n/a95184n/a
23.09 02:00-12,70,07,7 ⇖n/a95177n/a
23.09 01:00-11,30,07,0 ⇖n/a95178n/a
Position: (76.3998,-68.2665)

[Back]